ENEVENAN

Guest
Details From ENEV - EVENES
To ENAN - ANDOYA
Flight Number -
Tags generated
Created
Modified
Stats Distance 50 nm / 92 km
Max Altitude 0 ft / 0 m
Waypoints 3
Social Downloads 1
Likes 0
Share VATSIM

Download

Looking for another format? Having issues loading an existing format? Contact us
Advertisement - Login to hide

Notes

Basic altitude profile: - Ascent Rate: 2500ft/min - Ascent Speed: 250kts - Cruise Altitude: 35000ft - Cruise Speed: 420kts - Descent Rate: 1500ft/min - Descent Speed: 250kts Options: - Use NATs: yes - Use PACOTS: yes - Use low airways: yes - Use high airways: yes

Route

ENEV AND ENAN

ID Type Via Altitude Latitude Longitude Leg Dist Tot Dist Heading (true) Name
O ENEV APT - 0 ft / 0 m 68.49130˚ 16.67811˚ - 0 nm - EVENES
AND VOR - 0 ft / 0 m 69.28783˚ 16.14138˚ 49 nm 49 nm 347° / 346° ANDOYA VOR-DME
O ENAN APT - 0 ft / 0 m 69.29335˚ 16.13775˚ 0 nm 49 nm 347° / 347° ANDOYA

Altitude Profile

Advertisement - Login to hide

ENEV

Details ICAO ENEV (EVE)
Name EVENES
Region Norway
Timezone Europe/Oslo (UTC+2.0)
Stats Elevation 84 ft / 26 m (AMSL)
Location 68.491300° 16.678109°
Runways 1
Magnetic Variation 7.325° E

METAR

ENEV 262320Z AUTO 25004KT 210V280 9999 FEW014/// BKN041/// OVC053/// 07/02 Q1032 RMK WIND 1400FT 25012KT

Decode

TAF

Not found

Departure Runways

ID Width Length Bearing (true) Bearing (mag) Surface Threshold Offset Overrun Length
17 148 ft / 45 m 9,208 ft / 2,807 m 177.60° 170.28° Asphalt 302 ft / 92 m 0 ft / 0 m
35 148 ft / 45 m 9,208 ft / 2,807 m 357.60° 350.28° Asphalt 214 ft / 65 m 925 ft / 282 m

ENAN

Details ICAO ENAN (ANX)
Name ANDOYA
Region Norway
Timezone Europe/Oslo (UTC+2.0)
Stats Elevation 43 ft / 13 m (AMSL)
Location 69.293353° 16.137750°
Runways 2
Magnetic Variation 7.193° E

METAR

ENAN 262320Z AUTO 26013KT 9999 OVC019/// 06/02 Q1031

Decode

TAF

TAF TAF ENAN 262300Z 2700/2724 24008KT 9999 FEW015 BKN030 BECMG 2706/2708 23020KT TEMPO 2706/2724 BKN012

Decode

Destination Runways

ID Width Length Bearing (true) Bearing (mag) Surface Threshold Offset Overrun Length
03 148 ft / 45 m 5,468 ft / 1,667 m 31.41° 24.22° Asphalt 0 ft / 0 m 0 ft / 0 m
14 148 ft / 45 m 9,830 ft / 2,996 m 149.75° 142.56° Asphalt 823 ft / 251 m 0 ft / 0 m
21 148 ft / 45 m 5,468 ft / 1,667 m 211.43° 204.24° Asphalt 0 ft / 0 m 0 ft / 0 m
32 148 ft / 45 m 9,830 ft / 2,996 m 329.78° 322.59° Asphalt 886 ft / 270 m 0 ft / 0 m

Approach Navaids

Runway Type Ident Frequency Range Bearing (true) Bearing (mag) Slope Elevation
14 Localiser AN 109.10 MHz 18 nm / 33 km 149.79° 142.60° - 29 ft / 9 m (AMSL)